SWA2662 KSNA-KLAS

Flight info

Callsign SWA2662
Flight time 0h 41m
Altitude 29000
Route FINZZ3 MISEN RNDRZ4
Aircraft B738/M-SDE2E3FGHIRWXY/LB1

Departure

Time 2026-04-30 12:53
Airport John Wayne Orange County International Airport (KSNA)

Arrival

Time 2026-04-30 13:34
Airport Harry Reid International Airport (KLAS)
Time Latitude Longitude Altitude Speed Heading
2026-04-30 12:26 33.67499 -117.86504 50 ft 0 kts 118°
2026-04-30 12:45 33.67502 -117.86512 50 ft 3 kts 115°
2026-04-30 12:45 33.67510 -117.86537 47 ft 3 kts 101°
2026-04-30 12:46 33.67512 -117.86562 48 ft 3 kts 80°
2026-04-30 12:46 33.67505 -117.86586 48 ft 3 kts 48°
2026-04-30 12:46 33.67495 -117.86596 49 ft 0 kts 28°
2026-04-30 12:49 33.67503 -117.86592 47 ft 4 kts 28°
2026-04-30 12:50 33.67554 -117.86558 50 ft 14 kts 28°
2026-04-30 12:50 33.67663 -117.86489 49 ft 20 kts 27°
2026-04-30 12:50 33.67791 -117.86408 48 ft 21 kts 28°
2026-04-30 12:50 33.67917 -117.86328 47 ft 20 kts 27°
2026-04-30 12:51 33.68009 -117.86271 49 ft 9 kts 18°
2026-04-30 12:51 33.68060 -117.86298 49 ft 9 kts 302°
2026-04-30 12:51 33.68089 -117.86358 52 ft 8 kts 299°
2026-04-30 12:51 33.68118 -117.86427 50 ft 10 kts 298°
2026-04-30 12:52 33.68146 -117.86491 50 ft 4 kts 297°
2026-04-30 12:52 33.68143 -117.86524 50 ft 4 kts 238°
2026-04-30 12:52 33.68128 -117.86532 50 ft 0 kts 205°
2026-04-30 12:52 33.68126 -117.86533 50 ft 3 kts 205°
2026-04-30 12:53 33.67910 -117.86669 52 ft 74 kts 208°
2026-04-30 12:53 33.67246 -117.87091 54 ft 142 kts 208°
2026-04-30 12:53 33.66290 -117.87727 489 ft 163 kts 208°
2026-04-30 12:53 33.65235 -117.88355 1149 ft 177 kts 201°
2026-04-30 12:54 33.64023 -117.88835 1803 ft 190 kts 195°
2026-04-30 12:54 33.62688 -117.89183 2420 ft 208 kts 188°
2026-04-30 12:54 33.61154 -117.89415 2672 ft 234 kts 186°
2026-04-30 12:54 33.59451 -117.89641 2991 ft 259 kts 186°
2026-04-30 12:55 33.57633 -117.90012 3696 ft 270 kts 201°
2026-04-30 12:55 33.56017 -117.91122 4545 ft 274 kts 219°
2026-04-30 12:55 33.54594 -117.92670 5379 ft 279 kts 225°
2026-04-30 12:55 33.53188 -117.94319 6210 ft 285 kts 224°
2026-04-30 12:56 33.51746 -117.95992 7010 ft 290 kts 223°
2026-04-30 12:56 33.50396 -117.97807 7627 ft 294 kts 240°
2026-04-30 12:56 33.49827 -118.00110 7963 ft 295 kts 268°
2026-04-30 12:56 33.50210 -118.02513 8473 ft 298 kts 295°
2026-04-30 12:57 33.51354 -118.04572 9355 ft 297 kts 314°
2026-04-30 12:57 33.52786 -118.06379 10152 ft 301 kts 315°
2026-04-30 12:57 33.54289 -118.08241 10523 ft 322 kts 315°
2026-04-30 12:57 33.55930 -118.10221 10703 ft 346 kts 321°
2026-04-30 12:58 33.58093 -118.11606 11004 ft 360 kts 347°
2026-04-30 12:58 33.60581 -118.11769 11660 ft 361 kts 11°
2026-04-30 12:58 33.62927 -118.10808 12396 ft 362 kts 26°
2026-04-30 12:58 33.65210 -118.09481 13174 ft 366 kts 27°
2026-04-30 12:59 33.67503 -118.08098 13915 ft 370 kts 27°
2026-04-30 12:59 33.69817 -118.06701 14621 ft 374 kts 27°
2026-04-30 12:59 33.72167 -118.05296 15318 ft 379 kts 27°
2026-04-30 12:59 33.74520 -118.03905 16025 ft 383 kts 26°
2026-04-30 13:00 33.76929 -118.02491 16710 ft 387 kts 26°
2026-04-30 13:00 33.79364 -118.01067 17409 ft 391 kts 26°
2026-04-30 13:00 33.81832 -117.99625 18088 ft 396 kts 26°
2026-04-30 13:00 33.84333 -117.98164 18726 ft 399 kts 26°
2026-04-30 13:01 33.86837 -117.96700 19393 ft 401 kts 26°
2026-04-30 13:01 33.89354 -117.95226 20065 ft 402 kts 26°
2026-04-30 13:01 33.91812 -117.93618 20711 ft 403 kts 34°
2026-04-30 13:01 33.94038 -117.91617 21340 ft 405 kts 39°
2026-04-30 13:02 33.96240 -117.89494 21957 ft 406 kts 39°
2026-04-30 13:02 33.98473 -117.87365 22554 ft 409 kts 38°
2026-04-30 13:02 33.99965 -117.85967 22933 ft 410 kts 38°
2026-04-30 13:02 34.03012 -117.83154 23681 ft 413 kts 38°
2026-04-30 13:03 34.04539 -117.81755 23981 ft 415 kts 38°
2026-04-30 13:03 34.07608 -117.78947 24527 ft 420 kts 38°
2026-04-30 13:03 34.09158 -117.77458 24791 ft 422 kts 43°
2026-04-30 13:03 34.11152 -117.74834 25196 ft 425 kts 51°
2026-04-30 13:04 34.12973 -117.72068 25621 ft 427 kts 52°
2026-04-30 13:04 34.14811 -117.69221 26023 ft 430 kts 52°
2026-04-30 13:04 34.16667 -117.66367 26403 ft 434 kts 52°
2026-04-30 13:04 34.18553 -117.63509 26780 ft 437 kts 51°
2026-04-30 13:05 34.20463 -117.60644 27174 ft 438 kts 51°
2026-04-30 13:05 34.22381 -117.57789 27750 ft 436 kts 51°
2026-04-30 13:05 34.24287 -117.54956 28375 ft 433 kts 51°
2026-04-30 13:06 34.28064 -117.49333 28972 ft 435 kts 51°
2026-04-30 13:06 34.31887 -117.43625 28978 ft 439 kts 51°
2026-04-30 13:07 34.35755 -117.37844 28987 ft 442 kts 51°
2026-04-30 13:07 34.39608 -117.32073 28979 ft 444 kts 51°
2026-04-30 13:08 34.43500 -117.26234 28969 ft 443 kts 51°
2026-04-30 13:08 34.47348 -117.20452 29005 ft 439 kts 51°
2026-04-30 13:09 34.51157 -117.14717 28947 ft 437 kts 51°
2026-04-30 13:09 34.54995 -117.08943 28961 ft 439 kts 51°
2026-04-30 13:10 34.58874 -117.03277 28967 ft 440 kts 50°
2026-04-30 13:10 34.62823 -116.97566 28963 ft 441 kts 50°
2026-04-30 13:11 34.66758 -116.91840 28968 ft 441 kts 50°
2026-04-30 13:11 34.70665 -116.86128 28962 ft 441 kts 50°
2026-04-30 13:12 34.74583 -116.80390 28976 ft 440 kts 50°
2026-04-30 13:12 34.78499 -116.74643 28983 ft 440 kts 50°
2026-04-30 13:13 34.84341 -116.66056 28976 ft 440 kts 50°
2026-04-30 13:13 34.88734 -116.60932 28975 ft 439 kts 38°
2026-04-30 13:14 34.91161 -116.58671 28970 ft 439 kts 37°
2026-04-30 13:14 34.98372 -116.51912 28512 ft 424 kts 37°
2026-04-30 13:15 35.00678 -116.49682 27925 ft 422 kts 38°
2026-04-30 13:15 35.05211 -116.45266 26861 ft 415 kts 38°
2026-04-30 13:15 35.07463 -116.43070 26280 ft 413 kts 38°
2026-04-30 13:16 35.09706 -116.40884 25730 ft 411 kts 38°
2026-04-30 13:16 35.11839 -116.38564 25223 ft 404 kts 44°
2026-04-30 13:16 35.13726 -116.36126 24556 ft 397 kts 46°
2026-04-30 13:17 35.17409 -116.31149 23296 ft 392 kts 46°
2026-04-30 13:17 35.19263 -116.28710 22764 ft 389 kts 45°
2026-04-30 13:17 35.22941 -116.23948 21768 ft 383 kts 45°
2026-04-30 13:18 35.24731 -116.21543 21252 ft 382 kts 46°
2026-04-30 13:18 35.28218 -116.16722 20356 ft 375 kts 46°
2026-04-30 13:18 35.29953 -116.14333 19893 ft 373 kts 46°
2026-04-30 13:19 35.31676 -116.11969 19447 ft 371 kts 46°
2026-04-30 13:19 35.33392 -116.09615 18983 ft 370 kts 46°
2026-04-30 13:19 35.35105 -116.07263 18504 ft 369 kts 46°
2026-04-30 13:19 35.36810 -116.04922 18008 ft 368 kts 46°
2026-04-30 13:20 35.38489 -116.02614 17512 ft 366 kts 46°
2026-04-30 13:20 35.40179 -116.00288 17037 ft 363 kts 46°
2026-04-30 13:20 35.41858 -115.97975 16578 ft 361 kts 46°
2026-04-30 13:20 35.43526 -115.95677 16120 ft 359 kts 46°
2026-04-30 13:21 35.45179 -115.93397 15680 ft 357 kts 46°
2026-04-30 13:21 35.46828 -115.91123 15232 ft 355 kts 47°
2026-04-30 13:21 35.48446 -115.88888 14791 ft 353 kts 47°
2026-04-30 13:22 35.51695 -115.84396 13936 ft 350 kts 47°
2026-04-30 13:22 35.53316 -115.82153 13508 ft 347 kts 47°
2026-04-30 13:22 35.56420 -115.77854 13190 ft 326 kts 47°
2026-04-30 13:23 35.57903 -115.75797 13061 ft 316 kts 48°
2026-04-30 13:23 35.60499 -115.71610 12572 ft 306 kts 59°
2026-04-30 13:24 35.62595 -115.67107 11952 ft 301 kts 60°
2026-04-30 13:24 35.64669 -115.62712 11353 ft 296 kts 59°
2026-04-30 13:25 35.66762 -115.58371 10747 ft 293 kts 59°
2026-04-30 13:25 35.68824 -115.54116 10156 ft 289 kts 59°
2026-04-30 13:26 35.71861 -115.47844 9194 ft 282 kts 59°
2026-04-30 13:26 35.73845 -115.43742 8486 ft 275 kts 59°
2026-04-30 13:27 35.75924 -115.39939 8027 ft 262 kts 42°
2026-04-30 13:28 35.79907 -115.35753 8018 ft 243 kts 41°
2026-04-30 13:28 35.82423 -115.33048 7820 ft 241 kts 41°
2026-04-30 13:28 35.83688 -115.31682 7553 ft 241 kts 40°
2026-04-30 13:29 35.86278 -115.29117 7021 ft 234 kts 26°
2026-04-30 13:29 35.89098 -115.27565 6616 ft 206 kts 24°
2026-04-30 13:30 35.92920 -115.25398 5769 ft 199 kts 25°
2026-04-30 13:31 35.95411 -115.23972 5185 ft 194 kts 25°
2026-04-30 13:31 35.98985 -115.21926 4339 ft 185 kts 25°
2026-04-30 13:32 36.01226 -115.20644 3819 ft 169 kts 25°
2026-04-30 13:32 36.03260 -115.19470 3232 ft 156 kts 25°
2026-04-30 13:33 36.05227 -115.18343 2851 ft 159 kts 26°
2026-04-30 13:33 36.07162 -115.17248 2338 ft 147 kts 25°
2026-04-30 13:34 36.08072 -115.16730 2146 ft 138 kts 25°
2026-04-30 13:34 36.09308 -115.16021 2105 ft 11 kts 25°
2026-04-30 13:35 36.09358 -115.15971 2105 ft 9 kts 60°
2026-04-30 13:35 36.09321 -115.15823 2103 ft 9 kts 115°
2026-04-30 13:36 36.09257 -115.15655 2103 ft 13 kts 115°
2026-04-30 13:36 36.09217 -115.15556 2103 ft 12 kts 127°
2026-04-30 13:36 36.09061 -115.15590 2106 ft 13 kts 205°
2026-04-30 13:37 36.08980 -115.15636 2108 ft 13 kts 204°
2026-04-30 13:37 36.08788 -115.15746 2114 ft 20 kts 204°
2026-04-30 13:38 36.08602 -115.15751 2117 ft 17 kts 155°
2026-04-30 13:38 36.08472 -115.15677 2114 ft 23 kts 155°
2026-04-30 13:38 36.08185 -115.15511 2113 ft 22 kts 155°
2026-04-30 13:39 36.07925 -115.15362 2126 ft 10 kts 155°
2026-04-30 13:39 36.07877 -115.15187 2117 ft 16 kts 89°
2026-04-30 13:40 36.07873 -115.15040 2114 ft 18 kts 95°
2026-04-30 13:40 36.07872 -115.15019 2114 ft 18 kts 95°
2026-04-30 13:40 36.07868 -115.14972 2112 ft 19 kts 95°
2026-04-30 13:40 36.07856 -115.14790 2105 ft 23 kts 94°
2026-04-30 13:41 36.07846 -115.14630 2104 ft 9 kts 95°
2026-04-30 13:41 36.07841 -115.14551 2103 ft 10 kts 95°
2026-04-30 13:41 36.07878 -115.14486 2103 ft 11 kts
2026-04-30 13:41 36.07950 -115.14485 2104 ft 10 kts 360°
2026-04-30 13:42 36.08021 -115.14487 2104 ft 10 kts 350°
2026-04-30 13:42 36.08048 -115.14537 2105 ft 5 kts 272°
2026-04-30 13:42 36.08049 -115.14562 2105 ft 0 kts 273°